This demonstration page uses our WeatherBlox Daily Observations layout. Learn more.

Left ArrowRight Arrow

40.92501, -98.34201

Hourly Observations for August 23, 2020

Temp ( °F °C ) Dew Point ( °F °C ) Humidity (%) Winds ( mph kmh ) Pressure ( in mb ) Visibility ( mi km ) Precip ( " mm )
12:53 am 00:53 Clear 76 24.4 64 17.8 67 67 SSW 7 11 29.89 1012 10 16 0.00 0.00
1:53 am 01:53 Clear 75 23.9 64 17.8 69 69 SSW 8 13 29.89 1012 10 16 0.00 0.00
2:53 am 02:53 Clear 74 23.3 63 17.2 69 69 SW 8 13 29.90 1012 10 16 0.00 0.00
3:53 am 03:53 Clear 73 22.8 63 17.2 71 71 SW 8 13 29.90 1013 10 16 0.00 0.00
4:53 am 04:53 Clear 72 22.2 62 16.7 71 71 S 3 6 29.91 1013 10 16 0.00 0.00
5:53 am 05:53 Clear 71 21.7 62 16.7 73 73 SSW 3 6 29.91 1013 10 16 0.00 0.00
6:53 am 06:53 Sunny 68 20 62 16.7 81 81 SSE 5 7 29.93 1014 8 13 0.00 0.00
7:53 am 07:53 Mostly Sunny 71 21.7 63 17.2 76 76 S 5 7 29.94 1014 9 14 0.00 0.00
8:53 am 08:53 Mostly Sunny 76 24.4 63 17.2 64 64 SSW 7 11 29.96 1015 10 16 0.00 0.00
9:53 am 09:53 Sunny 81 27.2 63 17.2 54 54 SW 7 11 29.95 1014 10 16 0.00 0.00
10:53 am 10:53 Sunny 84 28.9 64 17.8 51 51 WSW 7 11 29.96 1015 10 16 0.00 0.00
11:53 am 11:53 Mostly Sunny 86 30 64 17.8 48 48 WSW 5 7 29.96 1014 10 16 0.00 0.00
12:53 pm 12:53 Sunny 88 31.1 67 19.4 50 50 SSE 6 9 29.94 1014 10 16 0.00 0.00
2:53 pm 14:53 Sunny 91 32.8 70 21.1 50 50 SE 10 17 29.93 1014 10 16 0.00 0.00
3:53 pm 15:53 Sunny 94 34.4 69 20.6 44 44 S 12 19 29.92 1013 10 16 0.00 0.00
4:53 pm 16:53 Mostly Sunny 95 35 67 19.4 40 40 S 12 19 29.92 1013 10 16 0.00 0.00
5:53 pm 17:53 Sunny 91 32.8 73 22.8 56 56 ESE 10 17 29.92 1013 10 16 0.00 0.00
6:53 pm 18:53 Sunny 89 31.7 73 22.8 59 59 SE 9 15 29.92 1013 10 16 0.00 0.00
7:53 pm 19:53 Sunny 85 29.4 72 22.2 65 65 SE 7 11 29.92 1013 10 16 0.00 0.00
8:53 pm 20:53 Clear 82 27.8 72 22.2 72 72 SSE 7 11 29.92 1013 10 16 0.00 0.00
9:53 pm 21:53 Clear 80 26.7 71 21.7 74 74 SSE 7 11 29.94 1014 10 16 0.00 0.00
10:53 pm 22:53 Clear 79 26.1 70 21.1 74 74 S 9 15 29.95 1014 10 16 0.00 0.00
11:53 pm 23:53 Clear 77 25 68 20 74 74 S 9 15 29.96 1014 10 16 0.00 0.00

Powered by AerisWeather